Temperature
16 16 17 17 17 18 19 22 24 23 24 23 23 23 23 22 21 18 17 17 16 16 17 16 16 16 16 15 15 15 15 15 15 15 15 15 15 14 15 14 14 14 14 14 14 14 14 14 14
16 16 16 17 17 18 20 22 22 22 22 22 22 23 23 21 19 18 17 16 16 16 16 16 16 16 15 15 15 15 15 15 15 15 15 15 14 14 14 14 14 14 14 14 14 14 14 14 14
15 15 17 17 18 19 21 22 22 22 22 22 22 22 21 20 18 17 16 16 16 16 16 16 16 15 15 15 15 15 15 15 15 15 14 14 14 14 14 14 14 14 14 14 14 14 14 14 14
15 15 17 17 18 20 21 21 21 21 22 21 22 21 19 18 17 17 16 16 15 15 15 15 15 15 15 15 15 15 15 14 14 14 14 14 14 14 14 14 14 14 14 14 14 13 13 13 13
15 16 16 17 18 20 21 21 21 21 21 21 21 20 18 17 17 17 16 16 15 15 15 15 15 15 15 15 15 15 14 14 14 14 14 14 14 14 14 14 14 14 14 14 13 13 13 13 13
15 16 16 17 19 20 20 20 21 21 21 21 21 20 18 17 16 16 16 15 15 15 15 15 15 15 14 14 15 14 14 14 14 14 14 14 14 14 14 14 14 14 13 14 13 13 13 13 13
15 15 16 18 19 19 20 20 20 20 20 20 20 19 18 16 16 16 15 15 15 15 14 14 14 14 14 14 14 14 14 14 14 14 14 14 13 14 14 14 14 13 13 13 13 13 13 13 13
14 15 16 17 18 19 19 19 19 19 19 19 19 19 17 15 15 15 15 14 14 14 14 14 14 14 14 14 14 14 14 14 14 14 14 14 13 13 13 14 13 13 13 13 13 13 13 13 13
14 14 15 17 18 18 18 18 18 17 17 17 17 17 16 15 15 15 14 14 14 13 13 13 13 13 14 14 14 14 14 13 13 13 13 13 13 13 13 13 13 13 13 13 13 13 13 13 13
14 13 15 16 16 16 16 17 17 16 16 16 16 16 15 15 15 14 14 14 13 13 13 13 13 13 13 13 13 13 13 13 13 13 13 13 13 13 13 13 13 13 13 13 13 13 12 12 13
14 14 15 15 15 15 15 15 16 15 15 16 16 15 15 14 14 14 14 14 13 13 13 13 13 13 13 13 13 13 13 13 13 12 12 12 12 12 12 12 12 12 12 12 12 12 12 12 12
14 14 14 14 13 13 14 14 14 14 14 15 15 15 14 14 13 13 13 13 13 13 13 13 13 13 13 13 13 13 13 12 12 12 12 12 12 12 12 12 12 12 12 12 12 12 12 12 12
13 13 13 13 12 13 13 13 13 13 13 14 14 14 14 13 13 13 13 13 13 12 12 12 12 12 12 12 12 12 12 12 12 12 12 12 12 12 12 12 12 12 12 12 12 12 12 11 11
12 12 12 12 12 12 12 12 13 13 13 13 13 13 13 13 13 13 12 12 12 12 12 12 12 12 12 12 12 12 12 12 12 12 12 11 11 11 11 11 11 11 11 11 11 11 11 11 11
11 11 11 12 12 12 12 11 12 13 13 13 13 13 13 13 13 12 12 12 12 12 12 12 12 12 12 12 12 12 12 12 12 12 11 11 11 11 11 11 11 11 11 11 11 11 11 11 11
11 10 10 12 12 12 11 10 13 13 13 13 13 13 13 12 12 12 12 12 12 11 11 11 11 11 11 11 11 11 11 11 11 11 11 11 11 11 11 11 11 11 10 10 10 10 10 10 10
10 10 10 11 12 12 10 10 12 13 13 13 13 13 12 12 12 12 11 11 11 11 11 11 11 11 11 11 11 11 11 11 11 11 11 11 11 11 11 11 11 10 10 10 10 10 10 10 10
9 10 11 11 11 11 10 10 11 12 12 12 13 12 12 12 12 11 11 11 11 10 10 11 11 10 10 10 10 10 10 11 11 11 11 11 10 10 10 10 10 10 10 10 10 10 10 10 10
9 9 9 10 10 10 9 10 11 12 12 12 12 12 12 12 11 11 10 10 10 10 10 10 10 10 10 10 10 10 10 10 10 10 10 10 10 10 10 10 10 10 10 10 10 9 9 9 9
9 9 9 9 10 9 9 9 10 11 11 11 11 11 12 11 11 10 10 10 10 9 9 9 9 10 10 10 10 10 10 10 10 10 10 10 10 10 10 10 10 10 10 9 9 9 9 9 9
8 8 8 8 8 9 8 8 10 11 11 11 11 11 11 11 10 10 10 9 9 9 9 9 9 9 9 9 9 9 9 9 9 9 9 10 9 9 10 10 10 10 9 9 9 9 9 9 8
7 8 8 7 6 6 7 6 9 10 10 10 10 10 10 10 10 9 9 9 8 8 8 8 8 9 9 9 9 9 9 9 9 9 9 9 9 9 9 9 9 9 9 9 9 9 8 8 8
7 8 7 7 6 6 6 5 7 9 9 9 9 10 10 9 9 8 8 8 8 8 8 8 8 8 8 8 8 8 8 8 8 8 9 9 9 9 9 9 9 9 9 9 8 8 8 8 8
7 7 7 6 5 5 6 6 7 8 9 9 9 9 9 8 8 7 7 7 7 7 7 7 7 7 8 8 8 8 8 8 8 8 8 8 8 8 8 8 8 9 9 9 8 8 8 8 8
7 5 5 5 5 6 7 7 7 8 8 8 7 7 7 7 7 7 6 6 6 6 6 6 7 7 7 7 7 7 7 7 7 8 8 8 8 8 8 8 8 8 8 8 8 8 8 8 7
6 6 5 5 6 6 6 6 7 8 8 8 7 7 6 6 6 5 5 5 5 5 5 6 6 6 6 6 6 7 7 7 7 7 7 7 7 8 8 8 8 8 8 8 8 7 7 7 7
6 5 6 5 5 5 6 7 8 7 7 7 6 6 5 5 5 5 4 4 4 4 5 5 5 6 6 6 6 6 6 6 6 6 7 7 7 7 7 7 7 7 8 7 7 7 7 7 7
6 5 4 4 4 5 6 7 7 6 6 6 5 5 5 5 4 4 4 4 4 4 4 4 5 5 5 5 5 5 6 6 6 6 6 6 6 7 7 7 7 7 7 7 7 6 6 6 6
4 4 4 4 4 4 5 6 7 6 5 5 5 5 4 4 4 3 3 3 3 4 4 4 4 4 4 4 4 5 5 5 5 5 6 6 6 6 6 6 6 7 7 6 6 6 6 6 6
5 5 4 3 3 4 4 4 6 5 5 5 4 4 4 4 3 3 3 3 3 3 3 3 3 4 4 4 4 4 4 5 5 5 5 5 5 5 6 6 6 6 6 6 6 6 6 6 6
Wind_Speed
13 12 7 3 3 5 10 8 5 1 1 2 3 3 4 4 4 6 5 6 10 11 12 12 11 11 11 11 10 10 10 10 11 11 11 11 11 10 11 10 10 10 11 11 11 11 11 12 12
11 9 4 3 4 7 8 8 5 2 1 3 2 2 1 3 6 7 4 7 10 11 12 11 11 11 11 11 11 10 10 10 10 10 11 11 10 10 10 10 10 10 11 11 11 11 11 11 12
9 7 4 4 6 9 7 2 2 2 3 1 1 1 2 4 5 5 5 7 9 10 11 12 12 11 10 11 12 11 10 10 10 10 11 10 10 10 9 9 10 10 10 11 10 10 11 11 11
4 3 4 6 12 10 7 2 1 2 1 1 2 2 3 5 4 5 7 6 9 9 11 12 12 11 10 11 11 10 10 10 10 10 10 10 10 9 9 9 9 10 10 10 10 10 10 10 9
3 4 5 9 14 10 5 2 3 3 4 4 3 1 3 5 8 7 6 6 8 9 10 12 11 11 10 10 11 10 10 10 10 10 10 10 9 9 9 9 9 10 9 9 9 9 8 9 8
3 4 6 11 13 10 6 4 5 6 4 3 3 3 3 6 7 4 4 4 7 9 10 11 11 10 10 10 10 11 10 10 9 10 10 10 9 9 9 9 9 9 9 9 8 8 8 8 8
4 4 9 11 11 8 5 3 5 5 5 2 2 2 5 6 5 3 3 3 6 8 9 8 9 9 9 9 10 11 10 10 9 10 10 10 9 9 9 9 9 9 9 8 8 7 8 8 7
3 4 8 11 11 7 2 3 2 3 3 2 3 1 3 5 5 4 3 3 5 7 8 7 7 7 7 7 8 11 11 10 10 10 10 10 9 9 9 9 9 8 8 8 7 7 7 7 6
3 4 8 9 8 3 1 2 1 2 3 2 2 2 4 7 5 4 3 2 3 4 5 6 6 6 6 6 7 10 11 11 11 10 11 10 9 9 8 8 9 8 8 7 7 6 6 6 5
4 5 8 5 5 3 3 3 2 2 3 4 2 2 5 5 4 5 4 3 3 4 4 5 5 5 6 6 6 7 9 10 10 10 10 8 8 8 8 9 9 8 7 7 7 7 6 5 4
5 6 5 5 5 5 4 4 4 4 5 4 3 2 4 3 2 4 4 4 4 4 4 4 4 5 5 4 5 4 6 8 9 10 10 8 7 8 8 8 8 7 6 6 6 6 5 5 4
6 6 5 4 5 5 5 5 6 6 5 4 4 1 3 3 4 4 4 4 4 4 5 4 4 4 4 4 4 4 4 5 6 8 10 7 5 5 6 6 7 7 6 5 5 4 4 4 4
8 6 5 5 5 6 7 8 7 7 6 6 5 4 4 5 4 4 3 3 3 4 5 5 5 5 5 4 4 4 4 5 6 7 9 8 5 5 5 5 6 6 6 6 4 4 3 3 3
4 5 6 7 7 6 8 9 8 9 6 7 7 6 6 6 6 5 5 4 4 4 4 4 5 5 5 5 5 4 4 5 6 7 8 9 7 5 5 4 4 5 6 6 5 4 3 2 2
4 6 8 8 8 5 6 10 11 10 7 8 8 7 7 6 6 6 6 5 5 5 4 4 5 5 5 5 5 5 5 5 6 6 8 8 8 7 6 5 4 4 6 6 4 3 3 2 1
6 6 7 5 6 4 4 10 6 4 6 7 7 6 6 6 6 5 5 5 4 4 4 4 4 4 5 5 5 4 5 5 6 7 8 8 9 8 6 5 4 5 5 4 3 2 1 2 1
5 6 7 4 6 5 7 10 5 4 6 8 8 7 6 6 6 5 4 3 4 4 4 4 4 4 4 5 5 4 4 5 5 6 7 8 9 9 7 5 5 6 4 3 3 2 2 2 1
4 6 7 6 4 6 10 12 9 7 8 9 8 7 7 6 6 4 3 3 3 4 4 4 4 4 4 4 4 4 3 4 5 6 7 8 8 9 7 6 6 6 4 3 3 3 2 2 2
6 8 9 7 4 7 11 14 12 9 8 9 7 7 7 6 4 4 3 3 3 3 4 5 5 5 4 4 5 5 5 5 5 5 8 9 9 9 7 5 6 6 5 5 4 3 3 2 1
9 10 10 6 4 7 10 14 13 10 10 9 8 8 6 5 3 3 3 3 3 4 4 5 5 6 5 5 5 5 5 5 5 5 6 8 9 9 8 7 6 6 5 6 5 4 3 2 3
8 8 8 7 7 7 8 10 8 6 7 7 7 6 4 4 3 3 3 3 2 3 4 4 5 5 5 5 4 4 4 3 4 5 5 6 8 8 8 8 7 6 6 6 6 6 5 4 3
7 4 5 6 5 4 3 6 7 6 7 6 5 4 4 3 2 1 2 2 3 4 4 4 5 5 6 5 5 6 6 6 5 5 5 5 7 7 8 8 8 7 6 6 6 6 4 5 4
4 4 5 6 6 6 6 6 8 5 6 5 4 3 1 1 2 2 2 2 3 3 3 4 4 5 5 6 6 6 6 5 4 5 6 6 6 7 8 8 8 7 6 6 6 6 5 5 4
3 4 5 4 3 6 8 7 6 3 4 3 1 2 2 2 2 2 2 2 2 3 2 3 4 4 5 5 5 6 7 6 6 6 7 6 5 5 7 7 7 7 7 7 7 6 6 5 5
2 1 1 2 4 7 4 5 7 2 0 2 2 2 3 4 3 3 3 3 3 3 3 3 4 4 4 4 4 6 6 7 8 7 7 6 5 5 6 6 6 6 7 7 7 7 7 6 6
4 3 2 3 4 4 2 6 4 1 2 4 4 3 3 4 4 5 4 4 3 3 3 3 3 4 3 3 4 5 5 5 5 5 5 6 6 6 6 6 6 7 8 7 6 6 6 6 6
3 4 2 3 4 5 6 5 2 1 3 3 3 4 3 4 5 5 5 4 4 4 3 3 3 2 2 2 3 3 3 4 4 4 4 5 5 5 7 7 7 7 7 7 7 5 6 5 5
3 2 1 3 3 5 5 5 3 0 1 2 2 3 3 4 4 4 4 4 4 3 3 1 1 1 1 2 2 2 2 2 3 4 4 4 5 5 6 7 7 7 7 7 7 5 5 6 5
4 3 3 3 4 3 4 3 2 2 1 1 2 2 2 3 3 4 4 4 3 3 3 2 1 1 1 2 2 2 2 1 2 3 4 4 4 5 6 7 7 8 8 8 7 7 7 7 6
3 4 4 3 4 4 4 5 2 4 4 3 4 4 3 3 3 4 4 4 4 4 3 3 2 1 1 1 2 2 2 1 1 2 3 3 4 4 5 6 7 7 7 8 8 8 7 7 7
Wind_Direction
305 289 270 262 241 233 242 245 250 227 254 44 23 350 3 11 39 106 149 120 116 126 131 139 138 136 139 135 130 130 130 129 126 125 125 125 124 120 116 114 112 109 106 103 100 97 95 94 91
295 288 267 241 237 236 239 231 229 229 87 62 45 309 350 62 76 103 116 113 124 126 131 138 140 139 139 138 135 134 134 133 131 128 125 126 125 123 119 119 116 114 110 104 101 99 97 98 95
277 269 251 231 231 237 252 249 139 112 103 122 206 324 2 60 80 103 107 123 125 124 129 135 140 141 140 140 139 139 135 136 135 133 129 126 124 123 120 120 120 118 114 109 107 104 101 100 98
271 237 243 241 242 243 255 283 354 102 159 206 235 128 95 59 66 94 113 134 127 127 125 133 140 140 139 141 140 140 137 136 137 136 134 131 125 122 122 121 124 122 118 115 111 110 106 104 102
244 239 230 237 244 249 257 270 283 238 199 189 225 198 110 90 84 96 125 145 135 129 125 136 141 141 143 142 144 142 140 138 138 139 137 133 127 124 125 122 125 125 124 122 118 117 114 111 107
240 236 233 238 243 238 225 239 256 259 244 198 221 204 128 104 91 99 130 144 132 127 125 136 145 145 149 147 149 147 145 143 141 143 140 136 133 133 131 130 130 130 127 128 125 123 122 117 111
252 244 247 253 253 246 228 235 249 255 249 246 255 214 138 110 99 102 115 125 119 118 122 129 143 147 149 153 154 151 148 146 144 145 143 141 140 140 138 136 135 136 133 129 127 128 129 123 117
287 274 252 251 253 251 247 263 280 291 289 335 336 258 120 111 104 108 110 110 116 118 126 136 142 146 148 151 159 155 153 152 149 145 142 140 139 139 138 137 134 135 136 135 132 132 131 130 127
274 250 248 250 260 269 17 297 316 329 318 321 345 17 95 107 106 121 123 113 119 123 131 142 149 147 149 156 159 159 158 158 151 148 147 146 147 145 142 142 140 139 139 141 140 140 136 135 142
221 236 249 286 329 335 331 311 315 280 254 246 232 116 115 118 137 153 164 171 168 155 149 148 155 155 152 163 156 167 164 161 160 157 155 161 159 156 153 147 143 144 145 147 150 153 150 148 158
221 245 277 306 341 334 320 309 303 268 251 242 233 173 128 131 173 184 189 191 186 174 164 163 163 160 158 159 159 169 170 168 170 167 165 167 161 149 138 141 145 148 151 154 153 157 169 171 162
250 264 287 299 324 317 303 298 289 271 269 315 326 349 148 180 208 215 212 204 192 174 177 166 169 168 166 161 164 170 175 171 168 171 167 167 155 148 147 150 156 158 164 164 157 169 178 173 167
244 260 276 290 288 283 284 274 278 270 272 284 287 270 220 208 219 220 226 229 203 187 184 173 170 176 174 170 174 176 184 176 170 172 172 169 156 156 154 157 161 164 169 166 169 178 175 168 165
286 286 273 267 265 268 269 268 259 255 249 256 255 252 241 219 217 218 213 217 216 200 189 179 182 181 178 178 179 181 187 181 170 171 173 169 158 157 159 162 163 166 167 168 175 178 161 165 152
275 271 263 243 245 253 272 263 237 238 240 244 245 246 243 235 222 223 216 214 211 201 187 187 197 185 183 186 189 185 188 185 174 175 177 173 166 164 162 163 165 165 165 166 173 172 155 162 160
244 246 253 220 216 225 241 259 243 219 230 243 246 244 236 238 234 233 225 210 201 193 188 193 209 195 190 193 195 190 188 185 178 175 177 177 173 169 164 165 169 168 165 162 166 162 157 176 187
226 243 253 248 208 225 234 260 257 242 248 246 246 247 242 240 235 233 230 215 199 195 193 188 199 199 201 200 199 196 190 190 181 177 180 179 174 172 168 172 171 169 165 168 177 167 169 178 182
239 254 258 250 228 246 250 260 263 247 251 255 248 245 243 238 232 222 220 220 206 196 194 194 194 202 208 206 200 199 205 198 184 182 186 181 176 175 173 174 174 170 171 177 180 176 172 183 183
275 275 274 277 288 276 260 264 263 248 243 250 251 247 240 240 226 207 211 209 208 201 199 198 196 205 200 199 200 200 207 203 193 193 188 182 179 179 177 180 178 177 183 184 183 178 172 186 161
262 268 275 290 305 285 275 271 264 246 243 241 240 243 240 232 225 214 206 203 210 212 207 207 209 207 209 208 207 205 205 206 196 193 190 185 183 184 184 185 187 186 184 183 186 179 184 196 173
259 257 272 290 308 276 283 283 248 228 227 237 238 237 239 239 233 234 220 213 219 229 222 221 221 217 212 213 210 208 200 200 199 196 196 192 184 185 182 185 187 190 188 191 193 189 184 195 201
268 279 285 285 287 274 268 285 267 227 228 228 231 223 229 234 240 265 277 254 243 241 233 231 231 223 214 206 204 207 209 209 203 195 192 189 185 184 183 183 187 193 192 195 198 197 193 184 203
266 308 288 274 268 276 236 246 271 226 228 234 224 197 180 54 30 354 330 294 273 272 250 242 244 234 223 210 207 213 222 221 197 188 187 192 194 190 185 183 184 193 193 194 197 197 197 197 202
277 286 273 252 250 258 225 217 272 234 230 218 188 77 47 29 21 354 338 327 300 292 271 258 255 248 232 219 212 214 219 213 201 195 193 195 199 197 189 186 188 192 192 193 195 195 198 203 206
251 280 303 253 228 246 212 220 250 250 28 111 103 62 34 21 10 358 344 335 313 303 278 261 252 257 246 230 228 224 221 211 207 203 199 197 199 201 195 194 192 195 193 191 189 193 198 201 205
236 234 230 251 257 276 259 238 251 139 68 70 85 79 48 23 14 2 348 336 323 310 291 278 259 256 241 240 249 245 226 209 207 213 207 205 204 201 197 196 199 202 193 193 189 193 200 199 205
235 229 266 285 285 275 247 236 214 47 44 58 58 46 22 12 10 353 340 338 330 316 295 280 263 260 257 260 280 247 220 207 205 209 213 212 203 201 198 199 201 201 191 189 189 196 200 197 202
262 269 209 226 257 267 263 248 251 11 6 32 28 16 5 5 358 350 340 336 326 314 302 286 250 269 299 291 277 276 236 215 208 205 211 211 208 203 200 204 203 199 191 189 190 193 194 195 202
195 208 225 241 257 263 281 274 9 34 72 62 2 12 19 356 350 348 343 345 342 340 348 347 8 7 328 295 291 283 277 262 224 210 210 207 210 206 206 206 203 198 195 190 191 194 192 196 200
225 219 204 221 250 235 263 274 16 56 42 36 12 10 2 360 1 354 351 354 353 352 359 348 347 352 319 294 295 288 280 282 259 237 225 210 208 210 210 202 199 199 198 193 193 195 196 195 196
Height
1488 1489 1491 1494 1495 1496 1490 1477 1468 1470 1471 1474 1476 1476 1478 1481 1485 1496 1495 1494 1494 1494 1496 1498 1501 1503 1505 1507 1508 1510 1511 1513 1515 1516 1517 1519 1520 1521 1522 1523 1524 1525 1526 1526 1527 1528 1528 1529 1529
1488 1489 1493 1493 1494 1496 1485 1473 1471 1471 1473 1475 1477 1478 1479 1483 1486 1490 1492 1493 1493 1494 1496 1498 1500 1502 1504 1506 1508 1510 1511 1513 1515 1516 1517 1519 1520 1521 1522 1523 1524 1525 1526 1527 1528 1528 1529 1530 1530
1487 1489 1492 1490 1489 1487 1479 1470 1470 1472 1474 1476 1478 1480 1482 1486 1488 1490 1491 1493 1493 1494 1496 1498 1500 1502 1504 1506 1508 1510 1511 1513 1514 1516 1517 1519 1520 1521 1523 1524 1525 1526 1527 1527 1528 1529 1530 1530 1531
1488 1490 1490 1489 1484 1475 1472 1471 1470 1472 1475 1477 1479 1481 1483 1487 1488 1489 1490 1493 1494 1494 1495 1497 1500 1502 1503 1505 1507 1509 1511 1513 1514 1516 1517 1519 1520 1521 1522 1524 1525 1526 1527 1528 1528 1529 1530 1531 1532
1488 1489 1488 1486 1479 1472 1470 1471 1472 1473 1474 1477 1479 1480 1484 1487 1487 1488 1490 1492 1493 1494 1495 1497 1499 1501 1503 1505 1507 1509 1511 1513 1514 1516 1517 1518 1520 1521 1522 1523 1525 1526 1527 1528 1528 1529 1530 1531 1532
1488 1485 1487 1483 1474 1469 1469 1471 1472 1473 1473 1476 1478 1480 1484 1486 1486 1487 1490 1492 1493 1493 1495 1497 1499 1501 1502 1504 1506 1508 1510 1512 1514 1515 1516 1518 1519 1521 1522 1523 1524 1525 1526 1527 1528 1529 1530 1531 1532
1487 1484 1481 1475 1471 1469 1469 1470 1472 1473 1473 1476 1477 1479 1482 1484 1485 1486 1489 1491 1492 1493 1494 1495 1498 1500 1502 1503 1505 1507 1509 1511 1513 1514 1516 1517 1519 1520 1521 1522 1524 1525 1526 1527 1528 1529 1530 1531 1532
1484 1483 1478 1473 1470 1469 1469 1470 1471 1473 1474 1476 1477 1478 1481 1483 1484 1486 1487 1489 1491 1492 1493 1494 1496 1498 1500 1502 1504 1506 1508 1510 1511 1513 1514 1516 1518 1519 1520 1521 1523 1524 1525 1526 1527 1529 1530 1531 1532
1483 1485 1479 1471 1469 1469 1470 1471 1472 1473 1474 1476 1477 1479 1480 1481 1483 1485 1487 1488 1490 1491 1492 1493 1495 1497 1498 1500 1502 1504 1506 1508 1510 1511 1513 1515 1516 1517 1519 1520 1522 1523 1524 1525 1527 1528 1529 1530 1531
1482 1482 1474 1471 1471 1470 1471 1472 1473 1474 1474 1476 1477 1478 1479 1480 1482 1484 1485 1486 1487 1489 1490 1492 1493 1495 1496 1498 1500 1502 1504 1506 1508 1510 1511 1513 1514 1516 1517 1519 1520 1522 1523 1524 1526 1527 1528 1529 1530
1477 1476 1472 1472 1473 1472 1473 1473 1474 1474 1475 1475 1476 1477 1478 1479 1481 1482 1483 1484 1486 1487 1488 1490 1491 1493 1494 1496 1498 1500 1502 1504 1506 1508 1509 1511 1513 1514 1515 1517 1519 1520 1522 1523 1525 1526 1527 1528 1529
1475 1473 1473 1473 1474 1474 1474 1474 1474 1473 1474 1474 1475 1475 1476 1478 1479 1480 1482 1483 1484 1485 1486 1487 1489 1491 1492 1494 1496 1497 1499 1501 1503 1505 1507 1509 1511 1512 1513 1515 1516 1518 1520 1521 1523 1524 1526 1527 1528
1474 1473 1473 1474 1474 1474 1474 1474 1473 1472 1472 1472 1473 1473 1474 1475 1476 1478 1479 1480 1482 1482 1483 1484 1486 1488 1490 1491 1493 1495 1497 1498 1500 1503 1505 1507 1508 1510 1511 1513 1514 1516 1518 1520 1521 1522 1524 1525 1526
1473 1473 1473 1474 1473 1473 1473 1472 1472 1468 1470 1471 1471 1471 1472 1473 1474 1475 1476 1477 1478 1479 1480 1482 1483 1485 1487 1488 1490 1492 1494 1496 1498 1500 1502 1504 1506 1507 1509 1511 1512 1514 1515 1517 1519 1521 1522 1523 1525
1475 1474 1472 1471 1471 1472 1473 1470 1466 1465 1467 1468 1468 1469 1469 1470 1471 1472 1473 1474 1475 1476 1477 1478 1480 1482 1483 1485 1487 1489 1491 1493 1494 1496 1499 1501 1503 1505 1507 1508 1510 1511 1513 1515 1517 1518 1520 1521 1522
1473 1473 1472 1466 1468 1469 1475 1469 1461 1462 1463 1464 1465 1465 1466 1467 1468 1469 1470 1471 1471 1472 1473 1475 1477 1478 1480 1482 1483 1485 1487 1489 1491 1493 1495 1497 1500 1502 1504 1505 1507 1509 1511 1512 1514 1516 1517 1518 1520
1472 1473 1469 1466 1465 1466 1469 1465 1460 1460 1461 1461 1462 1462 1463 1464 1465 1465 1466 1467 1468 1469 1470 1471 1473 1474 1476 1478 1480 1482 1483 1485 1487 1490 1492 1494 1496 1498 1500 1502 1504 1506 1508 1509 1511 1513 1514 1516 1517
1473 1470 1466 1465 1463 1465 1465 1461 1458 1458 1458 1458 1458 1459 1459 1460 1461 1462 1463 1464 1465 1466 1466 1467 1469 1470 1472 1474 1476 1478 1479 1481 1483 1486 1488 1490 1492 1495 1497 1499 1501 1503 1504 1506 1508 1509 1511 1513 1514
1470 1469 1467 1463 1463 1464 1462 1458 1454 1453 1454 1453 1454 1454 1455 1456 1458 1459 1460 1461 1461 1462 1463 1464 1465 1466 1468 1470 1471 1472 1474 1476 1479 1481 1484 1486 1488 1491 1493 1495 1497 1499 1500 1502 1504 1506 1507 1509 1511
1469 1470 1467 1464 1463 1463 1460 1455 1449 1447 1448 1448 1449 1450 1451 1452 1454 1455 1456 1457 1457 1458 1459 1459 1460 1462 1463 1465 1467 1468 1471 1472 1474 1477 1479 1482 1484 1486 1489 1491 1493 1495 1496 1498 1500 1502 1504 1505 1507
1468 1468 1467 1467 1466 1462 1462 1454 1445 1441 1442 1444 1445 1446 1447 1449 1450 1452 1453 1453 1453 1454 1455 1455 1456 1457 1459 1461 1463 1465 1467 1468 1470 1472 1474 1477 1479 1482 1484 1486 1489 1490 1492 1494 1496 1498 1500 1501 1503
1469 1465 1465 1467 1470 1469 1465 1467 1445 1440 1440 1440 1441 1442 1444 1446 1447 1448 1449 1450 1450 1450 1451 1451 1452 1453 1454 1456 1457 1459 1460 1461 1463 1466 1469 1472 1475 1477 1479 1482 1484 1486 1487 1489 1491 1493 1495 1497 1498
1467 1465 1466 1467 1469 1470 1465 1469 1450 1439 1439 1438 1438 1439 1441 1443 1444 1445 1446 1446 1446 1446 1446 1447 1447 1448 1450 1452 1453 1455 1456 1457 1459 1462 1464 1467 1470 1473 1475 1477 1479 1480 1483 1485 1487 1489 1491 1492 1494
1466 1466 1465 1466 1469 1472 1460 1463 1451 1440 1436 1436 1437 1438 1440 1441 1442 1443 1443 1443 1443 1442 1442 1442 1443 1444 1445 1447 1449 1450 1451 1453 1455 1456 1459 1461 1464 1467 1469 1471 1473 1475 1477 1479 1481 1484 1486 1487 1489
1467 1472 1474 1472 1471 1463 1450 1454 1447 1436 1434 1435 1437 1439 1439 1440 1440 1440 1440 1440 1439 1439 1438 1438 1439 1439 1441 1442 1444 1446 1447 1449 1450 1451 1454 1456 1458 1460 1463 1465 1468 1470 1472 1474 1476 1478 1480 1482 1484
1468 1469 1475 1475 1466 1457 1453 1453 1441 1435 1434 1434 1436 1438 1438 1438 1439 1439 1438 1437 1436 1436 1435 1435 1435 1436 1437 1438 1440 1441 1443 1444 1446 1447 1449 1451 1452 1455 1458 1460 1462 1464 1467 1469 1471 1473 1475 1477 1479
1467 1468 1467 1471 1468 1466 1453 1442 1437 1434 1434 1435 1436 1437 1438 1438 1437 1437 1436 1434 1434 1433 1433 1432 1432 1433 1434 1434 1435 1436 1438 1439 1441 1443 1445 1446 1448 1450 1453 1455 1457 1459 1461 1463 1465 1467 1469 1471 1473
1465 1466 1470 1473 1470 1461 1446 1440 1439 1438 1437 1436 1437 1438 1438 1438 1437 1435 1434 1432 1431 1430 1430 1430 1430 1430 1430 1431 1431 1432 1433 1435 1437 1438 1440 1441 1443 1445 1447 1449 1451 1453 1455 1458 1460 1462 1464 1466 1468
1467 1469 1469 1468 1466 1464 1455 1446 1437 1437 1436 1437 1437 1438 1437 1437 1436 1434 1433 1431 1429 1428 1428 1427 1428 1428 1428 1428 1428 1429 1430 1431 1433 1434 1435 1437 1439 1440 1441 1443 1445 1447 1449 1452 1454 1456 1458 1460 1462
1462 1463 1466 1471 1467 1463 1462 1453 1437 1436 1436 1437 1437 1437 1437 1436 1435 1434 1432 1430 1428 1427 1426 1426 1426 1425 1425 1425 1425 1426 1426 1427 1428 1429 1431 1432 1434 1435 1436 1438 1440 1441 1444 1446 1448 1451 1453 1455 1457